Temperature
21 19 19 20 20 19 19 18 18 19 21 19 18 18 19 20 21 21 21 21 21 21 21 20 19 18 16 15 13 13 12 12 12 12 11 11 11 11 10 10 10 9 9 9
20 19 20 20 19 19 18 18 18 19 20 19 18 18 19 21 22 22 21 20 20 19 19 20 19 18 16 15 14 13 12 12 13 13 13 13 12 12 11 10 10 10 9 9
19 21 20 20 19 19 19 18 18 17 17 18 18 18 21 22 22 21 21 20 19 18 18 18 18 17 16 15 15 14 13 12 12 12 11 11 10 9 9 10 11 10 10 9
20 20 19 19 18 19 18 19 17 17 16 16 18 15 19 21 20 19 19 19 18 18 17 17 17 17 16 15 15 14 13 12 12 11 11 11 11 12 13 12 12 11 10 9
19 20 19 18 19 18 18 17 16 16 15 15 17 17 18 21 19 18 18 18 18 17 17 17 16 16 16 15 14 13 13 12 11 11 11 10 11 12 11 10 10 9 9 9
18 19 18 18 17 17 17 16 16 16 15 15 19 18 18 20 19 19 18 19 18 17 17 16 16 16 15 15 14 14 13 12 11 11 10 10 10 10 10 9 9 9 8 8
20 18 18 17 17 17 16 16 17 16 15 17 18 18 17 20 19 19 19 18 18 17 16 15 15 15 15 14 14 14 13 13 12 11 10 10 10 9 9 9 8 8 7 7
19 18 17 17 17 16 18 17 16 16 16 17 19 17 18 20 20 20 19 18 17 16 15 15 14 14 14 14 14 14 13 13 12 11 11 10 10 9 9 9 8 8 7 7
19 18 17 17 17 17 17 17 17 16 16 16 17 19 21 21 19 19 19 18 16 15 15 14 14 14 14 14 14 13 13 13 13 12 12 11 11 10 10 9 9 8 8 7
18 18 18 15 16 15 16 16 16 15 15 15 17 18 19 20 19 19 18 17 16 15 14 14 14 14 14 13 13 13 13 13 13 12 12 11 11 10 10 9 9 9 8 7
18 17 17 15 15 17 14 15 15 15 16 15 14 16 20 19 19 18 17 16 15 15 14 14 13 13 13 13 13 13 12 12 12 12 11 11 11 10 10 9 9 9 8 7
18 16 16 18 17 16 17 17 16 15 15 16 14 16 20 20 19 18 17 16 15 14 14 13 13 13 12 12 12 12 12 11 11 11 10 10 10 10 9 9 9 8 8 7
17 15 15 16 15 15 15 16 16 15 14 13 13 15 19 18 18 17 16 16 15 14 14 13 12 12 12 11 11 11 11 10 10 10 9 9 9 9 8 8 8 8 7 7
15 15 15 15 16 16 16 16 15 14 13 13 14 15 17 17 16 15 16 15 14 14 13 12 12 11 11 11 10 10 10 9 9 9 8 8 8 8 7 7 7 7 6 6
14 13 14 15 16 16 15 15 15 15 14 14 14 15 16 16 15 15 14 14 14 13 13 12 11 11 10 10 9 9 9 8 8 8 7 7 7 7 7 6 6 6 6 5
13 13 13 14 15 15 15 15 15 15 15 15 15 15 16 15 15 14 13 13 13 12 12 11 10 10 9 9 8 8 7 7 7 7 7 7 6 6 6 5 5 5 5 4
13 13 13 12 14 14 13 14 15 15 15 15 14 14 14 13 13 12 12 12 12 11 10 10 9 9 8 8 7 7 7 6 6 6 6 6 5 5 4 4 4 4 3 3
13 13 11 10 11 9 13 16 16 16 15 15 14 14 13 12 12 12 12 11 10 10 9 9 8 8 7 7 6 6 6 6 5 5 5 4 4 3 3 3 3 2 2 2
12 12 11 9 10 11 14 15 15 14 14 14 13 12 13 12 11 11 11 10 9 9 8 8 7 7 6 6 6 5 5 5 4 4 3 3 2 2 2 2 2 1 1 1
9 10 10 9 9 9 13 13 13 13 12 12 12 11 12 11 7 8 10 9 9 8 7 7 6 6 6 5 5 4 4 3 3 2 2 2 2 1 1 1 0 0 0 0
9 8 8 8 8 10 14 12 13 11 11 12 12 11 11 9 8 9 8 8 7 7 6 6 6 5 5 5 4 3 3 2 2 1 1 1 1 0 -0 -0 -0 -0 -1 -1
9 9 8 8 8 9 13 12 12 12 12 12 11 10 10 9 8 8 7 7 6 6 6 5 5 4 4 4 3 2 2 1 1 0 0 0 -0 -0 -1 -1 -1 -1 -1 -1
11 12 11 10 11 13 13 13 13 12 11 11 10 9 8 8 7 7 6 6 5 5 5 5 4 4 3 3 2 1 1 0 -0 -0 -0 -1 -1 -1 -1 -1 -1 -2 -2 -2
12 12 11 10 11 13 13 13 12 11 10 9 8 8 7 7 6 5 5 5 5 4 4 4 3 3 2 2 1 0 -0 -0 -1 -1 -1 -1 -1 -1 -2 -2 -2 -2 -2 -3
10 10 10 10 10 12 12 11 10 9 8 8 7 7 6 5 5 4 4 4 4 4 3 3 2 2 1 0 -0 -0 -1 -1 -1 -1 -2 -2 -2 -2 -2 -2 -3 -3 -3 -3
9 9 9 9 10 9 9 9 8 7 7 6 6 5 5 4 4 4 4 3 3 3 3 2 1 1 0 -0 -1 -1 -1 -2 -2 -2 -2 -2 -2 -3 -3 -3 -3 -3 -3 -4
Wind_Speed
6 5 7 6 5 7 8 10 13 14 7 5 11 18 21 17 9 7 7 6 5 5 6 7 14 14 14 13 13 15 16 16 14 13 13 13 13 10 9 12 19 22 23 24
6 8 5 4 4 5 8 11 13 11 8 11 14 17 17 9 1 3 5 7 8 8 7 2 8 12 13 14 13 14 15 16 15 13 12 9 9 8 9 8 15 22 23 24
10 5 2 3 7 9 10 9 9 9 11 10 8 10 5 4 8 9 9 9 9 8 8 7 3 8 10 12 13 13 14 15 15 13 7 7 7 6 9 11 13 15 22 24
7 1 2 4 8 7 8 4 6 9 8 6 7 6 8 2 9 11 10 10 9 9 7 6 3 4 8 10 11 12 12 13 14 13 11 12 13 16 16 11 11 12 19 21
6 2 2 6 4 4 5 6 8 8 7 7 6 5 8 1 7 8 8 8 8 7 7 5 3 1 4 7 9 10 11 12 12 14 15 14 15 14 9 9 11 13 13 17
12 2 0 3 2 2 7 8 11 6 3 5 3 4 6 2 6 6 7 7 8 8 8 6 4 2 1 3 6 8 9 10 11 13 14 16 17 14 11 12 12 12 11 13
7 8 4 0 4 6 5 5 4 1 4 4 3 3 7 0 7 7 5 5 8 9 9 8 7 5 2 1 4 6 8 9 10 11 14 15 16 14 15 14 12 12 11 12
5 4 7 5 2 3 4 3 4 4 5 6 4 5 6 1 5 7 6 6 8 9 9 9 8 6 4 1 2 5 8 9 9 11 12 12 13 12 13 14 13 13 12 12
5 2 4 3 1 2 4 2 2 3 6 6 6 6 6 3 5 5 5 7 8 8 8 8 8 7 6 4 1 3 5 7 9 10 11 11 12 13 14 13 13 13 12 10
5 5 4 5 3 4 4 6 3 4 4 5 7 7 2 2 3 4 5 6 8 8 7 7 6 6 4 3 1 2 4 6 8 9 9 10 11 13 13 12 14 14 14 12
3 4 2 5 7 7 6 4 5 5 5 3 5 6 3 5 3 3 5 7 7 7 5 5 6 6 6 5 4 2 3 5 6 7 8 9 10 11 11 12 14 14 13 13
1 3 6 6 2 4 1 4 5 4 6 5 6 8 6 3 4 5 7 6 6 6 4 4 6 7 7 7 6 5 4 3 5 6 7 8 9 9 10 12 13 12 13 13
1 3 5 3 2 2 2 5 6 6 5 6 6 9 5 5 7 7 7 6 5 5 4 5 6 7 8 8 8 7 6 6 5 5 6 8 9 9 10 11 11 11 12 12
2 4 6 8 9 6 7 8 8 8 7 9 12 15 14 12 8 7 6 6 5 4 4 5 6 7 8 8 8 8 8 7 7 7 7 9 9 9 10 10 10 11 11 12
3 5 9 12 13 12 13 14 12 13 14 15 17 19 17 9 5 7 7 8 7 7 6 7 8 9 9 9 9 9 9 8 8 9 9 10 10 9 10 10 10 10 11 12
4 5 7 11 12 13 16 18 17 17 16 16 18 17 7 4 6 8 9 9 9 7 8 9 10 10 10 10 10 9 9 9 9 10 11 12 11 11 10 11 10 11 11 11
5 4 4 6 8 10 11 13 13 10 9 9 10 6 4 6 7 8 9 10 7 8 10 10 10 9 10 10 10 10 9 9 10 11 12 12 12 11 11 11 11 11 11 11
6 5 4 5 6 9 10 7 6 6 6 6 5 4 6 6 6 7 9 7 9 10 10 10 9 9 9 9 10 9 9 10 11 12 13 13 11 11 11 11 12 12 10 10
3 5 4 3 6 11 10 5 3 3 4 3 3 6 7 7 7 7 6 9 9 9 9 8 8 9 10 10 10 9 10 11 12 13 13 11 10 11 11 12 12 11 10 10
3 2 4 5 5 7 6 3 4 4 4 5 6 6 8 8 8 6 8 9 9 9 8 9 9 10 11 11 10 11 13 13 13 13 11 10 10 11 12 13 13 11 10 10
3 4 6 7 6 9 4 4 1 2 3 4 6 6 7 6 6 8 10 9 8 9 9 10 10 10 10 11 11 13 14 14 13 11 11 11 11 12 12 12 11 11 10 10
7 6 7 6 7 9 3 3 2 4 5 7 7 7 7 7 8 9 9 9 9 9 10 10 10 11 11 11 12 15 15 14 13 12 12 12 12 12 11 12 12 11 10 11
7 6 4 7 8 4 1 3 5 5 6 6 6 7 7 8 8 8 8 9 9 10 10 10 11 12 12 12 13 17 17 14 13 12 12 13 12 11 11 12 12 11 10 9
5 6 5 7 7 8 9 9 8 7 7 8 7 7 7 7 8 8 8 8 9 9 10 10 12 14 15 14 14 15 15 13 13 13 13 12 12 12 11 10 9 10 10 10
6 6 6 10 10 10 7 7 8 9 9 8 8 6 6 7 8 8 8 9 9 10 10 10 12 15 16 15 14 13 14 13 13 13 13 12 12 13 12 10 10 11 10 12
8 9 10 11 8 8 9 9 9 8 8 7 7 6 6 6 8 9 9 9 10 12 12 12 13 13 15 15 15 14 12 12 13 13 12 11 11 12 11 12 12 14 16 22
Wind_Direction
220 240 261 296 0 345 327 305 296 294 314 340 286 288 295 302 308 326 333 332 322 285 273 205 183 178 174 178 182 184 187 189 189 194 198 202 209 208 206 204 203 202 201 201
260 248 279 14 11 310 286 286 288 297 342 324 288 288 287 281 59 31 19 19 10 357 346 354 154 164 172 178 186 188 191 192 195 200 201 202 202 207 211 209 210 206 204 203
265 262 89 337 300 282 278 285 310 325 325 280 287 303 310 107 84 69 57 48 36 25 11 11 107 160 171 182 189 196 195 195 197 194 188 194 201 208 214 215 216 211 209 207
280 332 57 292 278 285 288 353 334 316 320 308 329 306 296 120 75 62 54 50 43 32 32 25 29 163 186 194 190 194 195 196 194 191 198 198 207 216 219 217 215 213 214 214
272 124 228 275 310 352 297 332 284 279 288 286 251 235 280 116 74 68 61 56 56 43 39 30 10 241 206 193 190 192 196 200 195 197 203 209 220 226 225 219 220 218 217 218
252 224 177 324 7 258 297 290 263 227 267 264 214 213 286 33 86 83 69 58 50 41 36 28 22 9 258 194 189 191 200 209 203 203 208 214 224 227 226 225 226 223 221 219
240 190 147 116 275 200 244 302 323 253 225 232 133 245 256 140 100 108 96 59 47 36 29 20 16 7 345 232 208 201 208 220 216 213 216 221 225 228 233 233 232 229 229 225
291 176 160 186 280 340 314 320 324 306 303 319 300 246 253 190 126 131 125 82 54 45 34 22 15 12 6 339 218 208 215 225 223 222 225 227 227 229 237 236 235 236 236 231
318 57 111 100 49 287 288 241 54 317 284 269 257 248 251 163 127 112 85 65 60 52 41 26 17 15 14 14 323 216 221 227 226 227 230 232 232 233 237 237 237 241 242 235
321 302 166 142 195 225 290 328 303 249 278 290 284 282 282 44 28 50 36 57 68 59 42 25 12 5 2 2 304 219 219 227 229 227 230 237 236 237 239 238 239 240 241 237
288 280 219 174 206 196 177 208 229 260 273 272 287 273 342 347 13 25 37 74 80 68 41 14 3 356 353 353 340 294 249 238 238 235 236 241 243 242 241 242 244 243 241 237
237 301 277 253 81 65 164 244 238 247 263 263 280 276 282 301 57 49 57 72 83 72 39 8 3 353 351 347 338 329 311 284 261 249 247 249 251 249 247 249 249 245 243 239
21 265 286 250 62 33 225 235 241 263 281 258 257 267 298 0 11 39 56 56 60 45 17 5 1 348 341 334 331 329 330 323 307 289 275 269 264 259 255 255 254 249 246 244
4 259 246 266 291 311 277 251 229 228 245 254 245 269 294 316 347 19 33 36 24 358 352 355 347 337 329 325 327 332 331 325 318 306 292 283 275 269 265 263 260 256 251 248
223 257 262 271 284 292 285 278 265 253 252 260 270 276 288 316 9 22 17 7 346 331 343 349 339 327 323 326 328 329 323 319 318 312 302 291 285 281 278 274 269 264 258 254
218 265 280 275 275 277 277 271 266 264 261 263 272 278 303 38 34 16 360 336 321 329 347 341 331 325 328 330 326 323 318 315 316 311 302 297 293 288 283 279 275 272 267 261
207 228 277 276 294 303 273 258 255 245 241 257 273 292 30 19 20 359 328 312 329 347 342 331 328 330 328 321 318 315 310 313 312 304 297 294 290 286 283 282 279 273 269 263
240 246 260 285 308 251 246 273 267 264 279 299 305 349 32 21 355 321 307 346 353 340 330 329 329 325 317 313 312 309 312 312 305 299 294 291 289 287 288 286 282 278 272 267
255 226 235 248 264 274 269 289 330 317 294 332 6 18 2 344 328 310 344 0 338 330 329 326 323 316 313 310 309 314 311 304 298 293 290 292 294 295 295 292 287 284 280 276
347 246 229 227 239 255 276 84 35 11 290 47 29 353 337 342 325 304 339 339 333 333 328 322 316 310 308 307 315 314 304 299 295 293 295 299 299 296 293 291 290 287 281 278
163 189 216 235 246 262 278 129 68 248 281 9 347 334 335 321 292 309 333 336 332 323 316 312 309 307 305 311 315 306 301 299 298 302 303 301 297 293 292 292 290 289 284 281
180 196 203 204 223 255 153 141 219 278 333 337 341 345 332 318 318 326 330 327 322 317 312 311 310 308 310 313 311 306 303 302 302 302 301 299 297 295 297 293 292 288 285 286
211 221 222 209 225 269 110 299 302 330 331 340 343 336 332 325 323 327 324 318 313 309 309 311 312 310 309 309 306 303 301 302 304 303 302 301 299 297 295 295 295 294 289 285
250 240 250 275 279 309 319 319 333 352 351 347 343 339 338 328 326 321 314 310 307 305 309 311 311 308 306 304 298 296 302 306 306 304 303 302 303 301 297 292 290 290 288 285
282 309 279 271 282 293 296 335 353 353 352 347 343 343 344 334 318 310 306 304 306 306 304 305 303 301 301 303 303 303 304 305 305 303 303 304 301 300 299 293 288 287 277 279
246 255 265 276 303 312 321 343 353 350 346 343 338 334 331 319 305 303 301 301 301 301 302 303 300 299 302 304 303 302 303 306 308 307 306 304 302 301 299 298 297 287 285 290
Height
1526 1529 1529 1523 1521 1523 1524 1526 1525 1515 1505 1506 1505 1497 1486 1480 1478 1476 1475 1474 1474 1473 1474 1475 1475 1478 1481 1485 1487 1489 1490 1491 1494 1495 1496 1497 1498 1500 1502 1503 1505 1506 1507 1509
1526 1527 1522 1520 1520 1523 1524 1526 1521 1511 1504 1507 1502 1493 1482 1476 1476 1476 1475 1475 1474 1473 1472 1473 1474 1475 1477 1480 1482 1484 1484 1486 1487 1488 1490 1492 1493 1495 1496 1497 1497 1498 1499 1500
1526 1520 1519 1520 1522 1523 1521 1522 1519 1517 1510 1502 1501 1496 1480 1476 1475 1477 1477 1477 1476 1475 1474 1474 1474 1475 1476 1476 1477 1479 1480 1481 1481 1483 1486 1487 1488 1488 1488 1488 1488 1489 1490 1491
1520 1516 1519 1521 1521 1519 1523 1515 1517 1518 1521 1517 1509 1518 1490 1477 1478 1479 1480 1479 1478 1477 1476 1475 1475 1475 1474 1474 1474 1475 1476 1476 1477 1479 1479 1479 1479 1477 1477 1480 1481 1482 1482 1482
1520 1516 1519 1521 1519 1519 1517 1514 1516 1517 1520 1521 1508 1513 1496 1477 1482 1482 1482 1481 1480 1479 1477 1476 1475 1474 1473 1472 1471 1471 1472 1472 1473 1473 1473 1473 1472 1472 1473 1474 1474 1473 1473 1473
1516 1515 1518 1518 1518 1519 1517 1516 1511 1514 1519 1524 1502 1506 1501 1483 1482 1482 1482 1482 1481 1480 1478 1477 1475 1473 1471 1470 1469 1468 1468 1468 1468 1468 1468 1467 1467 1467 1467 1467 1466 1465 1465 1464
1510 1514 1516 1518 1519 1517 1519 1521 1522 1522 1528 1516 1499 1503 1498 1479 1477 1479 1481 1481 1481 1480 1478 1476 1474 1472 1470 1469 1467 1466 1465 1464 1464 1464 1464 1463 1462 1462 1461 1460 1460 1459 1457 1455
1516 1517 1516 1517 1517 1520 1516 1520 1530 1534 1525 1514 1499 1503 1488 1474 1474 1477 1479 1480 1480 1479 1478 1476 1475 1472 1470 1468 1466 1464 1463 1462 1461 1460 1459 1458 1457 1456 1454 1453 1452 1451 1449 1447
1516 1517 1516 1514 1515 1518 1516 1516 1517 1525 1521 1520 1505 1488 1476 1471 1474 1476 1477 1477 1478 1478 1477 1476 1475 1473 1471 1468 1466 1464 1462 1460 1459 1457 1455 1454 1452 1450 1448 1446 1444 1442 1441 1440
1515 1519 1513 1516 1517 1518 1518 1519 1521 1525 1528 1526 1506 1494 1488 1476 1476 1475 1475 1476 1476 1477 1477 1476 1475 1473 1471 1469 1466 1464 1461 1459 1456 1454 1452 1449 1447 1444 1441 1439 1436 1433 1431 1431
1515 1520 1516 1517 1517 1513 1521 1520 1520 1520 1517 1526 1523 1504 1476 1474 1473 1474 1474 1475 1476 1476 1476 1476 1475 1473 1471 1468 1466 1463 1460 1456 1453 1451 1448 1445 1441 1438 1435 1432 1428 1425 1423 1421
1515 1518 1519 1509 1506 1506 1508 1510 1513 1523 1518 1511 1516 1502 1472 1470 1471 1473 1475 1475 1475 1475 1475 1475 1473 1471 1469 1467 1464 1461 1458 1454 1450 1446 1443 1439 1436 1432 1428 1424 1421 1417 1414 1411
1515 1520 1523 1514 1516 1513 1511 1509 1509 1511 1515 1517 1520 1502 1471 1470 1471 1473 1474 1474 1474 1474 1474 1473 1471 1469 1467 1464 1461 1457 1454 1450 1446 1442 1438 1433 1429 1425 1421 1416 1413 1409 1405 1401
1517 1519 1521 1522 1513 1508 1508 1506 1505 1510 1515 1510 1502 1489 1477 1474 1474 1473 1473 1473 1473 1473 1472 1470 1468 1466 1463 1460 1457 1453 1449 1445 1441 1436 1432 1427 1422 1418 1413 1408 1404 1400 1396 1392
1517 1519 1514 1509 1505 1503 1503 1501 1499 1501 1498 1499 1489 1484 1476 1474 1474 1473 1473 1472 1472 1471 1469 1467 1465 1462 1459 1456 1452 1448 1444 1439 1435 1430 1425 1420 1415 1410 1405 1400 1395 1390 1386 1382
1515 1517 1513 1510 1504 1501 1499 1493 1491 1490 1487 1485 1482 1478 1473 1472 1472 1473 1472 1472 1470 1468 1466 1464 1461 1458 1455 1451 1446 1442 1438 1433 1428 1423 1418 1412 1406 1401 1396 1391 1386 1381 1377 1373
1513 1515 1515 1514 1503 1501 1500 1485 1482 1481 1477 1478 1479 1476 1472 1472 1473 1473 1472 1470 1468 1466 1464 1461 1458 1454 1450 1446 1442 1437 1432 1427 1422 1416 1410 1404 1398 1393 1388 1382 1377 1372 1367 1363
1509 1511 1516 1516 1511 1517 1490 1472 1471 1472 1472 1472 1472 1472 1471 1473 1473 1473 1471 1468 1466 1464 1461 1457 1454 1450 1446 1442 1437 1432 1426 1420 1414 1408 1402 1396 1391 1385 1380 1375 1369 1364 1359 1355
1504 1509 1515 1517 1515 1500 1481 1474 1472 1473 1473 1471 1471 1471 1471 1471 1470 1470 1469 1466 1464 1461 1458 1454 1450 1446 1441 1436 1431 1425 1419 1413 1406 1400 1394 1389 1384 1378 1372 1367 1361 1356 1351 1347
1506 1507 1514 1514 1516 1509 1482 1476 1473 1476 1478 1473 1472 1472 1471 1470 1472 1469 1466 1463 1460 1457 1454 1450 1445 1441 1436 1431 1425 1418 1411 1405 1399 1394 1388 1383 1377 1371 1365 1360 1354 1349 1344 1339
1509 1511 1515 1513 1511 1495 1476 1475 1475 1483 1480 1474 1472 1471 1470 1469 1469 1465 1462 1459 1456 1453 1449 1446 1441 1436 1431 1425 1418 1411 1404 1398 1393 1387 1381 1376 1370 1364 1359 1353 1348 1342 1337 1332
1501 1505 1506 1506 1507 1497 1475 1475 1478 1477 1472 1470 1469 1468 1467 1465 1463 1461 1458 1455 1452 1449 1445 1441 1436 1430 1425 1419 1412 1403 1397 1391 1386 1380 1374 1368 1363 1357 1352 1346 1340 1335 1330 1324
1489 1488 1487 1487 1486 1475 1473 1473 1473 1471 1469 1468 1467 1465 1464 1461 1459 1456 1454 1451 1448 1444 1440 1436 1430 1423 1417 1412 1405 1397 1390 1384 1378 1372 1366 1361 1355 1350 1345 1339 1333 1328 1323 1318
1482 1479 1481 1480 1474 1472 1472 1472 1471 1469 1467 1466 1464 1462 1460 1457 1455 1453 1450 1447 1444 1440 1435 1430 1423 1415 1408 1403 1397 1391 1385 1378 1372 1365 1359 1354 1348 1342 1337 1333 1327 1322 1316 1311
1482 1479 1478 1476 1473 1471 1470 1470 1468 1466 1464 1462 1460 1459 1457 1454 1452 1450 1446 1443 1439 1434 1429 1423 1416 1408 1401 1395 1390 1384 1378 1372 1365 1359 1353 1347 1341 1335 1330 1325 1321 1315 1310 1307
1479 1479 1479 1475 1473 1472 1469 1468 1465 1463 1461 1459 1457 1455 1453 1452 1449 1446 1442 1438 1433 1428 1422 1416 1409 1402 1395 1389 1382 1377 1372 1366 1359 1352 1346 1340 1334 1329 1323 1317 1311 1307 1304 1299